Flag for Morocco Weather past 2 weeks in Rabat, Morocco

Now
55 °F

Passing clouds.


Feels Like: 55 °F
Forecast: N/A
Wind: No wind

Location: Rabat-Sale

Current Time: Dec 18, 2014 at 6:35:42 PM

Latest Report: Dec 18, 2014 at 6:00 PM


Visibility: 3 mi

Pressure: 30.33 "Hg

Humidity: 88%

Dew point: 52 °F

Location of RabatLocation

Historic Weather in Rabat — Graph

°F

Rabat temperature yesterday

Maximum temperature yesterday: 66 °F (at 11:00 AM)
Minimum temperature yesterday: 50 °F (at 10:00 PM)
Average temperature yesterday: 58 °F

Past Weeks' High & Low Weather Summary

 TemperatureHumidityPressure
High68 °F (Dec 13, 11:30 AM)100% (Dec 11, 5:00 AM)30.42 "Hg (Dec 11, 5:00 AM)
Low43 °F (Dec 8, 11:30 PM)30% (Dec 13, 12:00 PM)29.83 "Hg (Dec 3, 5:00 PM)
Average55 °F78%30.20 "Hg
* Reported Dec 3 5:00 PM — Dec 18 5:30 PM, Rabat, Weather by CustomWeather, © 2014

Note: Actual official high and low records may vary slightly from our data, if they occured in-between our weather recording intervals... More about our weather records

Advertising

Rabat weather history for previous 24 hours

 ConditionsComfort  
Time TempWeatherWind HumidityBarometerVisibility
5:30 PM
Dec 18
57 °FPassing clouds.No wind88%30.33 "Hg3 mi
5:00 PM61 °FPassing clouds.5 mph77%30.33 "Hg4 mi
4:30 PM61 °FPassing clouds.6 mph77%30.30 "Hg4 mi
4:00 PM63 °FScattered clouds.6 mph73%30.30 "Hg4 mi
3:30 PM63 °FScattered clouds.7 mph73%30.30 "Hg4 mi
3:00 PM63 °FScattered clouds.7 mph73%30.30 "Hg4 mi
2:30 PM63 °FScattered clouds.5 mph77%30.30 "Hg4 mi
2:00 PM63 °FScattered clouds.3 mph77%30.30 "Hg4 mi
1:30 PM63 °FScattered clouds.3 mph77%30.30 "Hg3 mi
1:00 PM63 °FScattered clouds.2 mph77%30.33 "Hg3 mi
12:30 PM61 °FScattered clouds.3 mph83%30.33 "Hg3 mi
12:00 PM63 °FScattered clouds.1 mph77%30.36 "Hg3 mi
11:30 AM61 °FScattered clouds.2 mph83%30.36 "Hg3 mi
11:00 AM59 °FFog.3 mph88%30.36 "Hg1 mi
10:00 AM55 °FFog.3 mph94%30.36 "Hg0 mi
9:30 AM54 °FFog.3 mph94%30.36 "Hg0 mi
9:00 AM52 °FFog.3 mph94%30.33 "Hg0 mi
8:30 AM50 °FFog.5 mph94%30.33 "Hg0 mi
8:00 AM50 °FFog.3 mph94%30.33 "Hg0 mi
7:30 AM48 °FFog.5 mph100%30.33 "Hg1 mi
7:00 AM48 °FFog.3 mph94%30.30 "Hg2 mi
6:30 AM48 °FFog.3 mph100%30.30 "Hg2 mi
6:00 AM48 °FFog.3 mph100%30.30 "Hg2 mi
5:30 AM50 °FFog.3 mph94%30.30 "Hg1 mi
5:00 AM50 °FClear.5 mph94%30.30 "Hg3 mi
4:30 AM48 °FClear.5 mph94%30.30 "Hg3 mi
3:30 AM50 °FClear.5 mph94%30.30 "Hg2 mi
3:00 AM50 °FClear.5 mph94%30.30 "Hg3 mi
2:30 AM50 °FFog.5 mph94%30.30 "Hg1 mi
2:00 AM50 °FFog.3 mph94%30.30 "Hg4 mi
1:30 AM52 °FCool.3 mph94%30.30 "Hg4 mi
1:00 AM52 °FFog.5 mph94%30.30 "Hg4 mi
12:30 AM52 °FFog.3 mph94%30.30 "Hg4 mi
12:00 AM52 °FFog.3 mph94%30.30 "Hg1 mi
11:30 PM
Dec 17
50 °FFog.1 mph94%30.30 "Hg1 mi
11:00 PM52 °FClear.2 mph94%30.30 "Hg3 mi
10:30 PM52 °FClear.3 mph94%30.30 "Hg3 mi
10:00 PM50 °FClear.2 mph94%30.30 "Hg3 mi
9:30 PM52 °FClear.2 mph94%30.30 "Hg3 mi
9:00 PM52 °FClear.3 mph94%30.30 "Hg4 mi
8:30 PM52 °FClear.2 mph94%30.30 "Hg4 mi
8:00 PM54 °FPassing clouds.2 mph88%30.30 "Hg4 mi
7:30 PM54 °FPassing clouds.3 mph94%30.30 "Hg4 mi
7:00 PM55 °FPassing clouds.2 mph88%30.30 "Hg4 mi
6:30 PM55 °FPassing clouds.2 mph88%30.30 "Hg5 mi
6:00 PM57 °FPartly cloudy.5 mph82%30.27 "Hg5 mi
Weather by CustomWeather, © 2014

See weather overviewHow to use our weather pages